Location: Huntsville
(34.7300°N, 86.5860°W)
Time: 05:22:42
(UTC-05:00)

Daily predictions for brighter satellites

Satellite Brightness Start Highest point End
(mag) Time Altitude Azimuth Time Altitude Azimuth Time Altitude Azimuth
SL-16 R/B 3.7 03:38:51 10° N 03:43:57 33° ENE 03:49:01 10° SE
Cosmos 2227 Rocket 4.1 03:53:25 20° N 03:53:25 20° N 03:55:12 10° N
Okean O Rocket 4.1 03:48:59 10° NNE 03:50:21 18° NE 03:50:21 18° NE
Cosmos 2297 Rocket 3.7 04:01:19 27° N 04:01:19 27° N 04:03:51 10° NNE
Lacrosse 5 4.1 04:12:13 15° N 04:12:13 15° N 04:13:38 10° N
Cosmos 2100 Rocket 4.4 04:10:01 10° N 04:16:12 61° E 04:22:26 10° SSE
GOES 2 Rocket 4.5 04:24:16 39° SSE 04:24:16 39° SSE 04:29:19 10° ESE
Cosmos 2061 Rocket 4.3 04:18:59 10° N 04:25:17 65° E 04:31:37 10° SSE
OAO 2 Rocket 3.6 04:26:15 65° ESE 04:26:15 65° ESE 04:30:56 10° E
ADEOS II 3.5 04:25:03 10° NNE 04:29:53 36° E 04:34:41 10° SSE
Cosmos 990 Rocket 4.3 04:30:48 48° SSE 04:32:02 63° ESE 04:37:14 10° NNE
CZ-4B DEB 4.3 04:26:54 10° NNE 04:32:25 76° ESE 04:34:08 45° S
Cosmos 1000 Rocket 4.4 04:34:54 34° S 04:37:51 87° W 04:44:13 10° N
Genesis I 4.0 04:40:15 49° NE 04:40:15 49° NE 04:43:14 10° NNE
USA 215 3.1 04:38:54 10° SE 04:45:25 71° SW 04:48:46 31° NW
ADEOS Rocket 3.2 04:38:36 10° NNE 04:45:30 81° ESE 04:51:30 11° S
Cosmos 2016 Rocket 4.2 04:39:47 10° N 04:46:06 70° E 04:52:18 10° SSE
Cosmos 2150 Rocket 4.4 04:51:06 43° NW 04:51:06 43° NW 04:55:18 10° N
Meteor 2-15 4.3 04:44:33 10° S 04:50:36 88° E 04:56:41 10° N
Cosmos 967 Rocket 4.4 04:48:53 47° SW 04:50:45 70° WNW 04:57:11 10° NNE
Cosmos 2173 Rocket 3.8 04:44:49 10° N 04:50:55 76° W 04:57:04 10° S
Tiangong 1 3.4 04:52:48 19° NNE 04:52:48 19° NNE 04:54:39 10° ENE
Thor Agena Rocket 3.9 04:47:11 10° SSE 04:52:26 68° ENE 04:57:41 10° N
Cosmos 1515 4.4 04:50:38 24° SSE 04:52:42 52° E 04:56:26 10° NNE
PAYLOAD B 4.2 04:48:20 10° N 04:53:45 60° WNW 04:54:56 48° WSW
Cosmos 1459 Rocket 3.9 04:48:02 10° NNW 04:54:21 70° W 05:00:33 10° S
ATLAS 5 CENTAUR R/B 4.2 04:59:18 16° SSW 04:59:18 16° SSW 05:00:51 10° SSW
CENTAUR R/B 3.3 04:47:31 10° NNW 04:55:31 76° ENE 05:03:53 10° SE
FALCON 9 R/B 3.3 04:54:19 36° SW 04:57:18 68° SSE 05:17:59 10° ENE
Cosmos 2123 Rocket 4.0 04:56:56 10° S 05:03:05 81° E 05:09:17 10° N
CZ-3A R/B 3.9 04:59:45 23° SW 05:03:52 30° SSW 05:07:38 10° SE
Okean-O 2.8 04:59:27 10° NNE 05:03:53 73° ESE 05:08:17 10° S
NOSS 2-2 (D) 3.8 05:04:35 47° NW 05:04:35 47° NW 05:08:57 10° NNE
CZ-4B R/B 3.4 05:01:27 10° N 05:06:40 48° WNW 05:08:27 35° WSW
Cosmos 1626 Rocket 3.4 05:04:57 19° S 05:08:04 81° W 05:12:26 10° N
Cosmos 1898 Rocket 4.5 05:09:59 28° WNW 05:09:59 28° WNW 05:14:11 10° N
Meteor 1-15 Rocket 4.3 05:04:41 10° NNW 05:10:04 50° W 05:15:31 10° SSW
Meteor 2-15 Rocket 4.3 05:05:47 10° SSW 05:11:50 73° W 05:17:55 10° N
Meteor PRIRODA 3.7 05:08:09 10° NNE 05:11:53 76° ESE 05:15:33 10° S
Cosmos 2227 4.3 05:10:25 29° SW 05:13:18 58° WNW 05:18:59 10° NNE
NOSS 5 (C) 4.2 05:14:23 55° SW 05:15:01 76° WNW 05:18:11 10° NNE
Cosmos 1125 Rocket 4.0 05:10:59 10° S 05:16:04 61° ESE 05:21:12 10° NNE
Cosmos 1937 Rocket 4.1 05:16:20 32° W 05:17:06 34° WNW 05:21:53 10° N
NOSS 2-2 (C) 4.2 05:19:33 31° WNW 05:20:04 32° NW 05:24:13 10° NNE
NOSS 2-2 (E) 4.5 05:20:27 28° WNW 05:20:56 29° NW 05:25:03 10° NNE
Delta 2 Rocket 3.8 05:20:42 34° SW 05:21:18 37° SSW 05:24:43 10° SE
Cosmos 2098 Rocket 3.5 05:22:34 10° NNW 05:26:57 52° W 05:32:29 10° S
Cosmos 972 Rocket 4.3 05:22:27 11° SSW 05:27:33 57° WNW 05:33:38 10° N
SL-16 R/B 2.9 05:23:06 10° NW 05:27:54 29° WSW 05:32:41 10° SSW
Okean O Rocket 3.5 05:26:21 10° NNW 05:27:48 15° NW 05:27:48 15° NW
CZ-4B R/B 3.8 05:26:28 10° NNE 05:30:17 75° ESE 05:33:56 10° S
DELTA 2 R/B (1) 4.1 05:27:00 21° WNW 05:30:35 51° N 05:36:01 10° E
Cosmos 1602 Rocket 4.0 05:29:30 13° SSW 05:33:06 40° W 05:37:15 10° N
Feng Yun 1-1 Rocket 4.3 05:28:07 10° N 05:33:46 66° WNW 05:39:33 10° SSW
Cosmos 1066 Rocket 4.2 05:31:13 10° S 05:36:51 82° W 05:42:40 10° N
PSLV R/B 4.3 05:34:58 10° N 05:38:47 31° WNW 05:41:42 15° SW
Cosmos 2084 Rocket 4.3 05:38:00 10° NNW 05:41:49 48° NE 05:45:48 10° SE
Cosmos 2228 4.1 05:39:01 10° NW 05:42:31 24° W 05:45:59 10° SW
NOAA 6 4.1 05:40:26 10° NNE 05:45:39 86° ESE 05:50:50 10° SSW
USA 129 0.9 05:45:33 10° S 05:47:22 78° WSW 05:49:03 10° NNW
MOS 1 Rocket 3.5 05:43:22 10° N 05:48:16 59° WNW 05:53:24 10° SSW
Cosmos 2233 Rocket 4.0 05:45:46 10° N 05:52:02 84° W 05:58:14 10° S
SL-24 R/B 3.8 05:50:14 10° NNE 05:54:15 89° ESE 05:57:57 10° SSW
Cosmos 1812 Rocket 4.1 05:57:52 10° NNW 06:01:58 37° W 06:06:04 10° SSW
COBE Rocket 4.2 05:58:08 10° N 06:02:31 39° WNW 06:06:48 10° SW
BREEZE-M DEB (TANK) 2.9 05:58:43 10° NW 06:07:39 88° NE 06:10:40 10° SE
Cosmos 1943 3.3 06:02:28 10° NNW 06:08:07 88° ENE 06:13:45 10° SSE
ADEOS II 3.2 06:05:15 10° NNW 06:09:21 24° WNW 06:13:27 10° WSW
OAO 2 Rocket 3.5 06:05:13 10° W 06:10:32 87° N 06:15:53 10° E
AVUM R/B 2.5 06:09:08 10° NW 06:11:20 45° WSW 06:13:24 10° S
Intercosmos 25 Rocket 4.2 06:07:53 10° NNW 06:11:57 51° W 06:18:21 10° S
Cosmos 2263 Rocket 2.2 06:07:57 10° SSW 06:13:29 65° WNW 06:19:00 10° NNE
CZ-4 R/B 3.9 06:10:12 10° NE 06:13:41 28° E 06:17:12 10° SSE
Cosmos 1603 4.4 06:10:54 10° NW 06:15:51 31° WSW 06:20:46 10° SSW
Meteor 1-22 Rocket 4.3 06:14:22 10° NNW 06:19:50 57° W 06:25:31 10° S
